Detroit Metropolitan Wayne County Airport
KDTW : now visible

Airfield :











YOU CAN JOIN US ON...

 
LOGIN :

Register | Disclaimer

   EN    FR    IT 

 









Legend :    VFR   Marginal VFR   IFR   Intensive IFR   Very Intensive IFR
Visi :
Ceiling :
>= 8 km
>= 3000ft
5 to 8 km
1000 to 3000 ft
1500m to 5 km
500 to 1000 ft
800 to 1500m
200 to 500 ft
< 800m
< 200 ft
Symbols :   Thunderstorms  Fog  Heavy snow  Heavy precipitations  Wind > 20 kt






- Airport Elevation : 645 ft
- IATA code : DTW


KDTW - Detroit Metropolitan Wayne County

CURRENT METAR :
  • 281453Z 32011KT 9SM -SN OVC030 M07/M13 A3054 RMK AO2 SNB21 SLP354 P0000 60000 T10721133 53016

EXPIRED METARs :
  • 281353Z 33010G20KT 10SM OVC030 M07/M14 A3052 RMK AO2 SLP346 T10721139 $
  • 281253Z 01009KT 10SM OVC032 M08/M14 A3051 RMK AO2 SLP342 T10781144 $

TAF KDTW
Valid from the 28 at 15:00 until the 29 at 18:00 UTC


281503Z 2815/2918 33011KT P6SM OVC030
TEMPO 2815/2818 -SHSN
FM281800 32011KT P6SM OVC035
TEMPO 2818/2822 P6SM -SHSN BKN030 OVC050
FM290100 30005KT P6SM BKN040
FM291400 30006KT P6SM SCT040
KZOB FIR / North America



MET'MAP, your aeronautical weather chart ! - Copyright ORBIFLY December 2007 - Disclaimer

ORBIFLY MET'MAP TEAM :

Programming & Development : Alexandra Zaïnal
Concept & original design : Baudouin d'Aumeries
Assistance for programming : Marc-Olivier Méhu
Technical & hardware support : Manuel Goepfert

Contact : metmap@orbifly.com




SOURCES & CREDITS :

   NOAA       Earth
Advisory